Location: Bieg
(49.3499°N, 10.3835°E)
Time: 11:42:59
(UTC+00:00)

Cosmos 2322 Rocket - Pass Details

Date: 23 May 2024
Orbit: 832 x 850 km, 71.0° (Epoch: 20 June)

Event Time Altitude Azimuth Distance (km) Brightness Sun altitude
Rises 00:51:09 0° 332° (NNW) 3,400 5.9 -16.8°
Reaches altitude 10° 00:53:38 10° 337° (NNW) 2,465 5.2 -16.7°
Maximum altitude 00:59:14 61° 57° (ENE) 958 2.7 -16.3°
Drops below altitude 10° 01:04:49 10° 138° (SE) 2,463 4.4 -15.9°
Sets 01:07:18 0° 142° (SE) 3,397 5.1 -15.7°
